Hazen, ND

7:23 PM CDT on May 23, 2017 (GMT -0500)
Mercer County Regional

Weather History for KHZE - June, 2013

Change the Weather History Date:

Monday, June 24, 2013

  Actual Average (KN60) Record (KN60)
Temperature  
Mean Temperature 66 °F -  
Max Temperature 84 °F 73 °F 90 °F (2016)
Min Temperature 48 °F 50 °F 33 °F (2004)
Cooling Degree Days 1    
Growing Degree Days 16 (Base 50)    
Moisture  
Dew Point 58 °F    
Average Humidity 73    
Maximum Humidity 100    
Minimum Humidity 42    
Precipitation  
Precipitation 0.00 in - - ()
Sea Level Pressure  
Sea Level Pressure 29.74 in    
Wind  
Wind Speed 4 mph (SSE)    
Max Wind Speed 17 mph    
Max Gust Speed 23 mph    
Visibility 10 miles    
Events Rain    
Averages and records for this station are not official NWS values.
T = Trace of Precipitation, MM = Missing Value Source: NWS Daily Summary

Daily Weather History Graph

Daily Weather History Graph

Search for Another Location

Airport or City:

Trip Planner

Search our weather history database for the weather conditions in past years. The results will help you decide how hot, cold, wet, or windy it might be!

Date:

Astronomy

Jun. 24, 2013 Rise Set
Actual Time 5:50 AM CDT 9:46 PM CDT
Civil Twilight 5:10 AM CDT 10:26 PM CDT
Nautical Twilight 4:15 AM CDT 11:22 PM CDT
Astronomical Twilight 2:49 AM CDT 12:47 AM CDT
Moon 10:40 PM CDT 7:28 AM CDT
Length of Visible Light 17h 16m
Length of Day
15h 55m
Full, 98% of the Moon is Illuminated
Jun 24
Full
Jun 29
Last Quarter
Jul 8
New
Jul 15
First Quarter
Jul 22
Full

Hourly Weather History & Observations

Time (CDT) Temp. Heat Index Dew Point Humidity Pressure Visibility Wind Dir Wind Speed Gust Speed Precip Events Conditions
12:15 AM 57.2 °F - 53.6 °F 88% 29.78 in 10.0 mi West 4.6 mph - N/A   Clear
12:35 AM 57.2 °F - 51.8 °F 82% 29.79 in 10.0 mi WSW 4.6 mph - N/A   Clear
12:55 AM 53.6 °F - 50.0 °F 88% 29.79 in 10.0 mi Calm Calm - N/A   Clear
1:15 AM 53.6 °F - 50.0 °F 88% 29.80 in 10.0 mi Calm Calm - N/A   Clear
1:35 AM 51.8 °F - 50.0 °F 94% 29.80 in 10.0 mi Calm Calm - N/A   Clear
1:55 AM 53.6 °F - 50.0 °F 88% 29.81 in 10.0 mi Calm Calm - N/A   Clear
2:15 AM 51.8 °F - 50.0 °F 94% 29.81 in 10.0 mi Calm Calm - N/A   Clear
2:35 AM 53.6 °F - 50.0 °F 88% 29.81 in 10.0 mi West 4.6 mph - N/A   Clear
2:55 AM 53.6 °F - 50.0 °F 88% 29.80 in 10.0 mi WSW 4.6 mph - N/A   Clear
3:15 AM 53.6 °F - 50.0 °F 88% 29.80 in 10.0 mi Calm Calm - N/A   Clear
3:35 AM 53.6 °F - 50.0 °F 88% 29.79 in 10.0 mi Calm Calm - N/A   Clear
3:55 AM 51.8 °F - 50.0 °F 94% 29.79 in 10.0 mi Calm Calm - N/A   Clear
4:15 AM 50.0 °F - 48.2 °F 94% 29.79 in 10.0 mi Calm Calm - N/A   Clear
4:35 AM 50.0 °F - 48.2 °F 94% 29.79 in 10.0 mi Calm Calm - N/A   Clear
4:55 AM 50.0 °F - 48.2 °F 94% 29.78 in 10.0 mi Calm Calm - N/A   Clear
5:15 AM 48.2 °F - 48.2 °F 100% 29.78 in 10.0 mi Calm Calm - N/A   Clear
5:35 AM 48.2 °F - 48.2 °F 100% 29.78 in 10.0 mi South 5.8 mph - N/A   Clear
5:55 AM 50.0 °F - 48.2 °F 94% 29.79 in 10.0 mi WSW 3.5 mph - N/A   Clear
6:15 AM 50.0 °F - 48.2 °F 94% 29.79 in 10.0 mi Calm Calm - N/A   Clear
6:35 AM 51.8 °F - 50.0 °F 94% 29.80 in 10.0 mi Calm Calm - N/A   Clear
6:55 AM 53.6 °F - 51.8 °F 94% 29.79 in 10.0 mi Calm Calm - N/A   Clear
7:15 AM 53.6 °F - 51.8 °F 94% 29.80 in 10.0 mi Calm Calm - N/A   Clear
7:35 AM 55.4 °F - 51.8 °F 88% 29.80 in 10.0 mi Calm Calm - N/A   Clear
7:55 AM 57.2 °F - 53.6 °F 88% 29.78 in 10.0 mi Calm Calm - N/A   Clear
8:15 AM 60.8 °F - 53.6 °F 77% 29.78 in 10.0 mi Calm Calm - N/A   Clear
8:35 AM 62.6 °F - 55.4 °F 77% 29.78 in 10.0 mi Calm Calm - N/A   Clear
8:55 AM 64.4 °F - 57.2 °F 77% 29.77 in 10.0 mi NNE 3.5 mph - N/A   Clear
9:15 AM 68.0 °F - 59.0 °F 73% 29.76 in 10.0 mi Calm Calm - N/A   Clear
9:35 AM 71.6 °F - 59.0 °F 64% 29.76 in 10.0 mi Calm Calm - N/A   Clear
9:55 AM 71.6 °F - 59.0 °F 64% 29.76 in 10.0 mi SW 6.9 mph - N/A   Clear
10:15 AM 73.4 °F - 60.8 °F 65% 29.76 in 10.0 mi SSW 8.1 mph - N/A   Clear
10:35 AM 73.4 °F - 62.6 °F 69% 29.76 in 10.0 mi SSW 4.6 mph - N/A   Clear
10:55 AM 75.2 °F - 62.6 °F 65% 29.75 in 10.0 mi South 5.8 mph - N/A   Clear
11:15 AM 75.2 °F - 64.4 °F 69% 29.76 in 10.0 mi SSE 9.2 mph - N/A   Clear
11:35 AM 75.2 °F - 64.4 °F 69% 29.75 in 10.0 mi South 6.9 mph - N/A   Clear
11:55 AM 75.2 °F - 64.4 °F 69% 29.75 in 10.0 mi South 4.6 mph - N/A   Partly Cloudy
12:15 PM 77.0 °F - 64.4 °F 65% 29.75 in 10.0 mi SSE 6.9 mph - N/A   Partly Cloudy
12:35 PM 75.2 °F - 64.4 °F 69% 29.75 in 10.0 mi SE 8.1 mph - N/A   Clear
12:55 PM 77.0 °F - 66.2 °F 69% 29.75 in 10.0 mi SE 8.1 mph - N/A   Clear
1:15 PM 77.0 °F - 64.4 °F 65% 29.74 in 10.0 mi ESE 10.4 mph - N/A   Clear
1:35 PM 77.0 °F - 66.2 °F 69% 29.73 in 10.0 mi ESE 11.5 mph - N/A Rain Light Rain
1:55 PM 78.8 °F - 64.4 °F 61% 29.72 in 10.0 mi ESE 10.4 mph 16.1 mph N/A   Clear
2:15 PM 80.6 °F 82.3 °F 64.4 °F 58% 29.72 in 10.0 mi SSE 13.8 mph 18.4 mph N/A   Partly Cloudy
2:35 PM 80.6 °F 81.8 °F 62.6 °F 54% 29.71 in 10.0 mi SE 15.0 mph 20.7 mph N/A   Partly Cloudy
2:55 PM 82.4 °F 83.4 °F 62.6 °F 51% 29.71 in 10.0 mi SE 17.3 mph 23.0 mph N/A   Clear
3:15 PM 82.4 °F 83.4 °F 62.6 °F 51% 29.70 in 10.0 mi SSE 13.8 mph 20.7 mph N/A   Scattered Clouds
3:35 PM 82.4 °F 82.9 °F 60.8 °F 48% 29.70 in 10.0 mi SE 13.8 mph 20.7 mph N/A   Partly Cloudy
3:55 PM 82.4 °F 83.4 °F 62.6 °F 51% 29.70 in 10.0 mi SE 13.8 mph 20.7 mph N/A   Clear
4:15 PM 82.4 °F 83.4 °F 62.6 °F 51% 29.70 in 10.0 mi SE 13.8 mph 19.6 mph N/A   Clear
4:35 PM 82.4 °F 82.9 °F 60.8 °F 48% 29.70 in 10.0 mi SE 11.5 mph 17.3 mph N/A   Clear
4:55 PM 82.4 °F 82.9 °F 60.8 °F 48% 29.69 in 10.0 mi ESE 11.5 mph 18.4 mph N/A   Clear
5:15 PM 82.4 °F 82.5 °F 59.0 °F 45% 29.69 in 10.0 mi SE 10.4 mph 18.4 mph N/A   Clear
5:35 PM 82.4 °F 82.0 °F 57.2 °F 42% 29.69 in 10.0 mi ESE 11.5 mph 16.1 mph N/A   Partly Cloudy
5:55 PM 84.2 °F 83.8 °F 59.0 °F 42% 29.68 in 10.0 mi ESE 12.7 mph 17.3 mph N/A   Mostly Cloudy
6:15 PM 82.4 °F 82.5 °F 59.0 °F 45% 29.67 in 10.0 mi ESE 8.1 mph 16.1 mph N/A   Mostly Cloudy
6:35 PM 82.4 °F 82.9 °F 60.8 °F 48% 29.67 in 10.0 mi ESE 8.1 mph 16.1 mph N/A   Scattered Clouds
6:55 PM 82.4 °F 83.9 °F 64.4 °F 54% 29.67 in 10.0 mi SE 6.9 mph - N/A   Scattered Clouds
7:15 PM 80.6 °F 82.7 °F 66.2 °F 61% 29.67 in 10.0 mi SE 8.1 mph - N/A   Mostly Cloudy
7:35 PM 80.6 °F 82.3 °F 64.4 °F 58% 29.67 in 10.0 mi SE 8.1 mph - N/A   Mostly Cloudy
7:55 PM 78.8 °F - 66.2 °F 65% 29.67 in 10.0 mi SE 9.2 mph - N/A   Mostly Cloudy
8:15 PM 77.0 °F - 66.2 °F 69% 29.67 in 10.0 mi SE 6.9 mph - N/A   Partly Cloudy
8:35 PM 77.0 °F - 64.4 °F 65% 29.67 in 10.0 mi SSE 8.1 mph - N/A   Clear
8:55 PM 75.2 °F - 66.2 °F 73% 29.68 in 10.0 mi SE 5.8 mph - N/A   Scattered Clouds
9:15 PM 75.2 °F - 66.2 °F 73% 29.67 in 10.0 mi SE 6.9 mph - N/A   Partly Cloudy
9:35 PM 73.4 °F - 66.2 °F 78% 29.67 in 10.0 mi SE 6.9 mph - N/A   Clear
9:55 PM 71.6 °F - 66.2 °F 83% 29.67 in 10.0 mi SE 5.8 mph - N/A   Partly Cloudy
10:15 PM 71.6 °F - 64.4 °F 78% 29.68 in 10.0 mi SE 5.8 mph - N/A   Scattered Clouds
10:35 PM 71.6 °F - 64.4 °F 78% 29.69 in 10.0 mi SE 8.1 mph - N/A   Mostly Cloudy
10:55 PM 71.6 °F - 62.6 °F 73% 29.70 in 10.0 mi SE 8.1 mph - N/A   Mostly Cloudy
11:15 PM 71.6 °F - 62.6 °F 73% 29.69 in 10.0 mi SSE 8.1 mph - N/A   Clear
11:35 PM 71.6 °F - 62.6 °F 73% 29.68 in 10.0 mi SSE 8.1 mph - N/A   Scattered Clouds
11:55 PM 71.6 °F - 62.6 °F 73% 29.67 in 10.0 mi SE 8.1 mph 17.3 mph N/A   Scattered Clouds